BAW7NY EGLL-KJFK

Flight info

Callsign BAW7NY
Flight time N/A
Altitude 34000
Route CPT L9 BUCGO DCT FELCA DCT OFSOX DCT SLANY DCT MALOT/M083F360 NATD RIKAL/N0479F360 N572A TOPPS DCT ENE PARCH3
Aircraft B77W/H-SDE1E2E3FGHIJ2J3J4J5M1RWXY/LB1D1

Departure

Time N/A
Airport London Heathrow Airport (EGLL)

Arrival

Time 2026-05-04 17:29
Airport John F. Kennedy International Airport (KJFK)
Time Latitude Longitude Altitude Speed Heading
2026-05-04 17:21 40.86458 -73.51306 2966 ft 200 kts 234°
2026-05-04 17:21 40.84829 -73.54276 2966 ft 200 kts 234°
2026-05-04 17:22 40.84010 -73.55769 2971 ft 200 kts 234°
2026-05-04 17:22 40.83194 -73.57251 2969 ft 197 kts 235°
2026-05-04 17:23 40.80873 -73.61477 2952 ft 188 kts 235°
2026-05-04 17:23 40.80109 -73.62863 2973 ft 184 kts 234°
2026-05-04 17:23 40.78141 -73.64726 3002 ft 181 kts 214°
2026-05-04 17:24 40.77080 -73.65588 2911 ft 178 kts 215°
2026-05-04 17:24 40.74061 -73.67988 2237 ft 161 kts 214°
2026-05-04 17:25 40.73102 -73.68740 2012 ft 160 kts 214°
2026-05-04 17:25 40.71272 -73.70180 1587 ft 144 kts 215°
2026-05-04 17:26 40.69582 -73.71504 1201 ft 131 kts 214°
2026-05-04 17:26 40.67325 -73.73284 697 ft 131 kts 210°
2026-05-04 17:27 40.65831 -73.74465 318 ft 126 kts 209°
2026-05-04 17:27 40.64319 -73.75649 49 ft 124 kts 208°
2026-05-04 17:28 40.63157 -73.76555 28 ft 65 kts 210°
2026-05-04 17:29 40.62938 -73.76872 28 ft 3 kts 242°
2026-05-04 17:29 40.62999 -73.77127 29 ft 20 kts 300°
2026-05-04 17:30 40.63223 -73.77619 33 ft 17 kts 301°
2026-05-04 17:31 40.63365 -73.77933 29 ft 27 kts 300°
2026-05-04 17:31 40.63650 -73.78571 33 ft 27 kts 301°
2026-05-04 17:32 40.63813 -73.78932 29 ft 28 kts 301°
2026-05-04 17:33 40.64053 -73.79462 27 ft 5 kts 300°
2026-05-04 17:33 40.64080 -73.79497 27 ft 6 kts 334°
2026-05-04 17:34 40.64229 -73.79502 29 ft 9 kts
2026-05-04 17:34 40.64295 -73.79497 29 ft 10 kts
2026-05-04 17:35 40.64555 -73.79509 29 ft 15 kts 355°
2026-05-04 17:35 40.64728 -73.79626 28 ft 8 kts
2026-05-04 17:35 40.64765 -73.79573 28 ft 9 kts 58°
2026-05-04 17:36 40.64796 -73.79497 28 ft 10 kts 62°
2026-05-04 17:36 40.64829 -73.79419 28 ft 10 kts 60°
2026-05-04 17:36 40.64865 -73.79337 27 ft 11 kts 60°
2026-05-04 17:36 40.64906 -73.79242 28 ft 13 kts 60°
2026-05-04 17:37 40.64951 -73.79136 27 ft 14 kts 60°
2026-05-04 17:37 40.65001 -73.79018 28 ft 15 kts 61°
2026-05-04 17:37 40.65017 -73.78896 28 ft 14 kts 118°
2026-05-04 17:37 40.64931 -73.78844 28 ft 14 kts 162°
2026-05-04 17:38 40.64862 -73.78865 28 ft 10 kts 243°
2026-05-04 17:38 40.64855 -73.78884 28 ft 0 kts 244°